Flag for Belarus Weather past 2 weeks in Barysaw, Belarus

Now
36 °F

Passing clouds.


Feels Like: 36 °F
Forecast: 45 / 68 °F
Wind: No wind

Location: Minsk

Current Time: Apr 25, 2015 at 7:19:22 AM

Latest Report: Apr 25, 2015 at 6:30 AM


Visibility: N/A

Pressure: 29.92 "Hg

Humidity: 93%

Dew point: 34 °F

Location of BarysawLocation

Historic Weather in Barysaw — Graph

°F

Barysaw temperature yesterday

Maximum temperature yesterday: 61 °F (at 4:00 PM)
Minimum temperature yesterday: 37 °F (at 5:30 AM)
Average temperature yesterday: 51 °F

Past Weeks' High & Low Weather Summary

 TemperatureHumidityPressure
High66 °F (Apr 11, 3:30 PM)100% (Apr 12, 4:00 AM)30.21 "Hg (Apr 12, 4:00 AM)
Low28 °F (Apr 19, 5:00 AM)21% (Apr 11, 5:30 PM)29.36 "Hg (Apr 16, 6:30 AM)
Average44 °F69%29.84 "Hg
* Reported Apr 10 6:00 AM — Apr 25 6:00 AM, Barysaw, Weather by CustomWeather, © 2015

Note: Actual official high and low records may vary slightly from our data, if they occured in-between our weather recording intervals... More about our weather records

Advertising

Barysaw weather history for previous 24 hours

 ConditionsComfort  
Time TempWeatherWind HumidityBarometerVisibility
6:00 AM
Sat, Apr 25
34 °FClear.1 mph93%29.92 "Hg10 mi
5:30 AM36 °FClear.1 mph93%29.92 "Hg10 mi
5:00 AM37 °FClear.3 mph93%29.92 "Hg10 mi
4:30 AM39 °FClear.3 mph87%29.89 "Hg10 mi
4:00 AM39 °FClear.3 mph87%29.89 "Hg10 mi
3:30 AM43 °FPassing clouds.3 mph76%29.89 "HgN/A
3:00 AM43 °FPassing clouds.3 mph76%29.89 "HgN/A
2:30 AM45 °FPassing clouds.6 mph71%29.86 "HgN/A
2:00 AM46 °FPassing clouds.6 mph66%29.86 "HgN/A
1:30 AM46 °FClear.8 mph66%29.86 "Hg10 mi
1:00 AM46 °FPassing clouds.6 mph66%29.86 "HgN/A
12:30 AM46 °FClear.6 mph66%29.83 "Hg10 mi
12:00 AM48 °FPassing clouds.6 mph62%29.83 "HgN/A
11:30 PM
Fri, Apr 24
48 °FPassing clouds.8 mph62%29.83 "HgN/A
11:00 PM50 °FClear.10 mph58%29.83 "Hg10 mi
10:30 PM50 °FPassing clouds.10 mph58%29.83 "HgN/A
10:00 PM52 °FPassing clouds.10 mph54%29.83 "HgN/A
9:30 PM52 °FPassing clouds.10 mph58%29.80 "HgN/A
9:00 PM54 °FPassing clouds.8 mph51%29.80 "HgN/A
8:30 PM55 °FPassing clouds.8 mph47%29.77 "HgN/A
8:00 PM57 °FPassing clouds.10 mph41%29.77 "HgN/A
7:30 PM57 °FPassing clouds.13 mph39%29.74 "HgN/A
7:00 PM59 °FPassing clouds.8 mph39%29.74 "HgN/A
6:30 PM59 °FPassing clouds.10 mph39%29.74 "HgN/A
6:00 PM59 °FPassing clouds.10 mph42%29.74 "HgN/A
5:30 PM59 °FPassing clouds.13 mph39%29.74 "HgN/A
5:00 PM61 °FPassing clouds.13 mph34%29.74 "HgN/A
4:30 PM61 °FPassing clouds.13 mph34%29.74 "HgN/A
4:00 PM61 °FPassing clouds.13 mph36%29.74 "HgN/A
3:30 PM59 °FPassing clouds.13 mph39%29.74 "HgN/A
3:00 PM59 °FPassing clouds.13 mph42%29.74 "HgN/A
2:30 PM59 °FPartly sunny.10 mph42%29.74 "HgN/A
2:00 PM59 °FPartly sunny.13 mph45%29.74 "HgN/A
1:30 PM55 °FPartly sunny.10 mph51%29.74 "HgN/A
1:00 PM55 °FPartly sunny.8 mph55%29.74 "HgN/A
12:30 PM54 °FPartly sunny.10 mph58%29.74 "HgN/A
12:00 PM52 °FOvercast.8 mph62%29.74 "HgN/A
11:30 AM52 °FOvercast.8 mph62%29.74 "HgN/A
11:00 AM52 °FPartly sunny.13 mph62%29.74 "HgN/A
10:30 AM50 °FPartly sunny.10 mph71%29.74 "HgN/A
10:00 AM50 °FPartly sunny.10 mph71%29.71 "HgN/A
9:30 AM48 °FPartly sunny.10 mph76%29.71 "HgN/A
9:00 AM48 °FPartly sunny.13 mph76%29.71 "HgN/A
8:30 AM48 °FPartly sunny.10 mph76%29.71 "HgN/A
8:00 AM45 °FPartly sunny.1 mph87%29.71 "HgN/A
7:30 AM43 °FPartly sunny.No wind87%29.71 "HgN/A
7:00 AM41 °FSunny.1 mph93%29.71 "Hg10 mi
Weather by CustomWeather, © 2015

See weather overviewHow to use our weather pages